カタログに戻る

COSMOS 886 DEB

運用中LEO
NORAD 9655·DEBRIS·🇷🇺 Russia

打ち上げ Dec 27, 1976 から Baikonur Cosmodrome

Loading…

次のパス (今後24時間)

TLE

最新Source: Space-Track

元期: Sep 14, 2026, 14:29 UTC

1 09655U 76126M   26257.60410176  .00004145  00000-0  73741-3 0  9993
2 09655  65.7846 215.5358 0639424  46.1399 319.0702 13.84034123401806

AllMySatでCOSMOS 886 DEBをリアルタイム追跡

Download on the App Store